CBERS 1 DEB, 30792

Orbit data source: Space-Track

CBERS 1 DEB, 30792 is space debris in SSO originally from a launch on Thu, 14 Oct 1999 UTC launched from the Taiyaun Space Center, China (TSC). Debris objects in space refer to the collection of defunct objects orbiting the Earth. Examples of debris include non-operational satellites, rocket bodies, and fragments generated from explosions, collisions, or faulty payload assembly.

Loading next visibility...
Identifier
30792, 1999-057PB
Orbit
SSO
Country
Flag of UnknownUnknown / CHBZ
Related business
Manufacturer
Unknown
Mission
Spacecraft
Bus & Motor
Unknown
Mass
Unknown
Launch date (UTC)
1999-10-14 (26 years ago)
Launch vehicle
Unknown
Launch site
Taiyaun Space Center, China (TSC)
Object type
Payload
Rocket body
Debris
Shape & HBR
Unknown shape, 0.1 m
Radar Cross Section
Small (<0.1 m²)

Expand to show TLE details & history
Last TLE update: 13 hours ago

TLE from 13 hours ago
0 CBERS 1 DEB
1 30792U 99057PB  26036.56741694  .00000441  00000-0  16328-3 0  9992
2 30792  98.8483  43.0033 0007169  24.0212 105.0669 14.37352499992611
Epoch: 2026-02-05T13:37Z
TLE epoch observation values (Epoch: 2026-02-05T13:37:04.823Z)
Latitude
50.10376°
Longitude
-106.31096°
Altitude
776.548 km
Speed
7.47 km/s
True Right ascension
15h 34m 42s
True Declination
49° 56' 06"
Sunlit
Object was in daylight at epoch
Visualization orbit readout
Latitude
Unknown
Longitude
Unknown
Altitude
Unknown
Speed
Unknown
Apparent Right ascension
Unknown
Apparent Declination
Unknown
Sunlit
N/A
Visualization observer readout
Local Sidereal Time
04:37:00
Azimuth
Unknown
Elevation
Unknown
Doppler factor
Unknown
Orbital elements
Apogee altitude
769.522 km
Perigee altitude
759.281 km
Semi-major axis
7,142.538 km
Eccentricity
0.00072
Inclination
98.8483°
RAAN
43.0033°
Arg. of periapsis
24.0212°
True anomaly
105.14621°
Mean anomaly
105.0669°
Eccentric anomaly
105.10656°
Mean motion
3.59554 °/min
Orbital period
100.12 mins
BSTAR
0.00016328
Loading maneuver chart data...
Computing Atmospheric mass density...
Loading historical data...
Loading historical data...
Loading historical data...
Loading historical data...
Loading historical data...
Loading historical data...
Loading historical data...

Documentation

Showing up to 5 results
|